| time (UTC) | temp C | wind direction | speed KPH | gust KPH | rain 1hr cm | rain 24hr cm | rain mn cm | humidity % | barometer mb |
| 20260504190717 | 22 | 216 | 1.6 | 11.3 | 0.00 | 0.00 | 0.00 | 36 | 1011.5 |
| 20260504190217 | 22 | 188 | 3.2 | 11.3 | 0.00 | 0.00 | 0.00 | 37 | 1011.4 |
| 20260504185715 | 22 | 21 | 1.6 | 8.0 | 0.00 | 0.00 | 0.00 | 37 | 1011.5 |
| 20260504185215 | 22 | 218 | 3.2 | 8.0 | 0.00 | 0.00 | 0.00 | 40 | 1011.5 |
| 20260504184718 | 22 | 351 | 1.6 | 8.0 | 0.00 | 0.00 | 0.00 | 36 | 1011.6 |
| 20260504184216 | 22 | 180 | 1.6 | 4.8 | 0.00 | 0.00 | 0.00 | 38 | 1011.7 |
| 20260504183717 | 22 | 299 | 3.2 | 9.7 | 0.00 | 0.00 | 0.00 | 39 | 1011.8 |
| 20260504183217 | 22 | 231 | 3.2 | 9.7 | 0.00 | 0.00 | 0.00 | 38 | 1011.8 |
| 20260504182717 | 22 | 177 | 3.2 | 9.7 | 0.00 | 0.00 | 0.00 | 38 | 1011.9 |
| 20260504182222 | 22 | 164 | 1.6 | 9.7 | 0.00 | 0.00 | 0.00 | 37 | 1012.0 |
| 20260504181723 | 21 | 261 | 1.6 | 9.7 | 0.00 | 0.00 | 0.00 | 41 | 1012.0 |
| 20260504181222 | 21 | 266 | 3.2 | 8.0 | 0.00 | 0.00 | 0.00 | 38 | 1012.1 |
| 20260504180724 | 21 | 175 | 1.6 | 8.0 | 0.00 | 0.00 | 0.00 | 37 | 1012.3 |
| 20260504180222 | 21 | 182 | 1.6 | 4.8 | 0.00 | 0.00 | 0.00 | 36 | 1012.3 |
| 20260504175722 | 21 | 281 | 0.0 | 3.2 | 0.00 | 0.00 | 0.00 | 39 | 1012.2 |
| 20260504175222 | 21 | 161 | 0.0 | 3.2 | 0.00 | 0.00 | 0.00 | 38 | 1012.3 |
| 20260504174723 | 21 | 161 | 0.0 | 9.7 | 0.00 | 0.00 | 0.00 | 39 | 1012.3 |
| 20260504174221 | 21 | 144 | 3.2 | 9.7 | 0.00 | 0.00 | 0.00 | 39 | 1012.4 |
| 20260504173723 | 21 | 196 | 1.6 | 4.8 | 0.00 | 0.00 | 0.00 | 38 | 1012.5 |
| 20260504173221 | 21 | 242 | 1.6 | 4.8 | 0.00 | 0.00 | 0.00 | 38 | 1012.6 |
| 20260504172719 | 20 | 268 | 1.6 | 8.0 | 0.00 | 0.00 | 0.00 | 37 | 1012.6 |
| 20260504172220 | 20 | 188 | 3.2 | 8.0 | 0.00 | 0.00 | 0.00 | 36 | 1012.7 |
| 20260504171719 | 20 | 193 | 0.0 | 8.0 | 0.00 | 0.00 | 0.00 | 37 | 1012.7 |
| 20260504171220 | 20 | 172 | 3.2 | 8.0 | 0.00 | 0.00 | 0.00 | 37 | 1012.8 |
| 20260504170719 | 20 | 167 | 1.6 | 4.8 | 0.00 | 0.00 | 0.00 | 39 | 1012.9 |
| 20260504170218 | 20 | 167 | 1.6 | 4.8 | 0.00 | 0.00 | 0.00 | 37 | 1012.9 |
| 20260504160216 | 20 | 293 | 3.2 | 8.0 | 0.00 | 0.00 | 0.00 | 40 | 1013.5 |
| 20260504150722 | 18 | 277 | 1.6 | 8.0 | 0.00 | 0.00 | 0.00 | 40 | 1014.1 |
| 20260504150222 | 18 | 227 | 0.0 | 4.8 | 0.00 | 0.00 | 0.00 | 40 | 1014.2 |
| 20260504141216 | 16 | 188 | 0.0 | 3.2 | 0.00 | 0.00 | 0.00 | 50 | 1014.2 |
| 20260504140716 | 16 | 194 | 0.0 | 3.2 | 0.00 | 0.00 | 0.00 | 48 | 1014.2 |
| 20260504140216 | 16 | 194 | 0.0 | 4.8 | 0.00 | 0.00 | 0.00 | 52 | 1014.2 |
| 20260504130717 | 12 | 179 | 1.6 | 4.8 | 0.00 | 0.00 | 0.00 | 58 | 1014.7 |
| 20260504130216 | 12 | 194 | 1.6 | 4.8 | 0.00 | 0.00 | 0.00 | 57 | 1014.7 |
| 20260504120221 | 9 | 5 | 0.0 | 0.0 | 0.00 | 0.00 | 0.00 | 72 | 1015.0 |
| 20260504110719 | 7 | 5 | 0.0 | 0.0 | 0.00 | 0.00 | 0.00 | 78 | 1015.1 |
| 20260504110219 | 7 | 5 | 0.0 | 0.0 | 0.00 | 0.00 | 0.00 | 76 | 1015.1 |
| 20260504100216 | 8 | 285 | 0.0 | 0.0 | 0.00 | 0.00 | 0.00 | 77 | 1015.1 |
| 20260504081717 | 7 | 285 | 0.0 | 0.0 | 0.00 | 0.00 | 0.00 | 81 | 1015.5 |
| 20260504081218 | 7 | 285 | 0.0 | 0.0 | 0.00 | 0.00 | 0.00 | 81 | 1015.6 |
| 20260504080716 | 7 | 285 | 0.0 | 0.0 | 0.00 | 0.00 | 0.00 | 78 | 1015.5 |
| 20260504080216 | 7 | 285 | 0.0 | 0.0 | 0.00 | 0.00 | 0.00 | 78 | 1015.6 |
| 20260504070216 | 6 | 285 | 0.0 | 0.0 | 0.00 | 0.00 | 0.00 | 76 | 1015.7 |
| 20260504060219 | 5 | 285 | 0.0 | 0.0 | 0.00 | 0.00 | 0.00 | 84 | 1015.8 |
| 20260504050716 | 5 | 285 | 0.0 | 0.0 | 0.00 | 0.00 | 0.00 | 84 | 1016.0 |
| 20260504050216 | 5 | 285 | 0.0 | 0.0 | 0.00 | 0.00 | 0.00 | 82 | 1015.9 |
| 20260504045716 | 5 | 285 | 0.0 | 0.0 | 0.00 | 0.00 | 0.00 | 82 | 1015.9 |
| 20260504045216 | 5 | 285 | 0.0 | 0.0 | 0.00 | 0.00 | 0.00 | 83 | 1015.8 |
| 20260504044717 | 5 | 285 | 0.0 | 0.0 | 0.00 | 0.00 | 0.00 | 82 | 1015.8 |
| 20260504044217 | 5 | 285 | 0.0 | 0.0 | 0.00 | 0.00 | 0.00 | 82 | 1015.8 |
| 20260504043716 | 5 | 285 | 0.0 | 0.0 | 0.00 | 0.00 | 0.00 | 82 | 1015.9 |
| 20260504043222 | 5 | 285 | 0.0 | 0.0 | 0.00 | 0.00 | 0.00 | 82 | 1015.9 |
| 20260504042717 | 5 | 285 | 0.0 | 0.0 | 0.00 | 0.00 | 0.00 | 82 | 1015.9 |
| 20260504042216 | 5 | 285 | 0.0 | 0.0 | 0.00 | 0.00 | 0.00 | 82 | 1015.8 |
| 20260504041716 | 5 | 285 | 0.0 | 0.0 | 0.00 | 0.00 | 0.00 | 81 | 1015.8 |
| 20260504041216 | 5 | 285 | 0.0 | 0.0 | 0.00 | 0.00 | 0.00 | 81 | 1015.8 |
| 20260504040718 | 5 | 285 | 0.0 | 0.0 | 0.00 | 0.00 | 0.00 | 81 | 1015.7 |
| 20260504040216 | 5 | 285 | 0.0 | 0.0 | 0.00 | 0.00 | 0.00 | 80 | 1015.7 |
| 20260504035716 | 5 | 285 | 0.0 | 0.0 | 0.00 | 0.00 | 0.00 | 79 | 1015.8 |
| 20260504035216 | 5 | 285 | 0.0 | 0.0 | 0.00 | 0.00 | 0.00 | 78 | 1015.6 |
| 20260504034717 | 6 | 285 | 0.0 | 0.0 | 0.00 | 0.00 | 0.00 | 78 | 1015.6 |
| 20260504034218 | 6 | 285 | 0.0 | 0.0 | 0.00 | 0.00 | 0.00 | 78 | 1015.6 |
| 20260504033716 | 6 | 285 | 0.0 | 0.0 | 0.00 | 0.00 | 0.00 | 78 | 1015.6 |
| 20260504033216 | 6 | 285 | 0.0 | 0.0 | 0.00 | 0.00 | 0.00 | 79 | 1015.5 |
| 20260504032718 | 6 | 285 | 0.0 | 0.0 | 0.00 | 0.00 | 0.00 | 78 | 1015.4 |
| 20260504032219 | 6 | 285 | 0.0 | 0.0 | 0.00 | 0.00 | 0.00 | 78 | 1015.4 |
| 20260504031720 | 6 | 285 | 0.0 | 0.0 | 0.00 | 0.00 | 0.00 | 76 | 1015.3 |
| 20260504031220 | 6 | 285 | 0.0 | 0.0 | 0.00 | 0.00 | 0.00 | 75 | 1015.2 |
| 20260504030720 | 6 | 285 | 0.0 | 0.0 | 0.00 | 0.00 | 0.00 | 75 | 1015.1 |
| 20260504030219 | 6 | 285 | 0.0 | 0.0 | 0.00 | 0.00 | 0.00 | 76 | 1015.2 |
| 20260504025720 | 6 | 285 | 0.0 | 0.0 | 0.00 | 0.00 | 0.00 | 77 | 1015.2 |
| 20260504025222 | 6 | 285 | 0.0 | 0.0 | 0.00 | 0.00 | 0.00 | 75 | 1015.2 |
| 20260504024721 | 6 | 285 | 0.0 | 0.0 | 0.00 | 0.00 | 0.00 | 74 | 1015.1 |
| 20260504024219 | 7 | 285 | 0.0 | 0.0 | 0.00 | 0.00 | 0.00 | 70 | 1015.2 |
| 20260504023720 | 7 | 285 | 0.0 | 0.0 | 0.00 | 0.00 | 0.00 | 71 | 1015.1 |
| 20260504023219 | 7 | 285 | 0.0 | 0.0 | 0.00 | 0.00 | 0.00 | 74 | 1015.2 |
| 20260504022717 | 7 | 285 | 0.0 | 0.0 | 0.00 | 0.00 | 0.00 | 74 | 1015.1 |
| 20260504022216 | 7 | 285 | 0.0 | 0.0 | 0.00 | 0.00 | 0.00 | 72 | 1015.2 |
| 20260504021717 | 7 | 285 | 0.0 | 0.0 | 0.00 | 0.00 | 0.00 | 71 | 1015.1 |
| 20260504021216 | 7 | 285 | 0.0 | 0.0 | 0.00 | 0.00 | 0.00 | 67 | 1015.1 |
| 20260504020717 | 7 | 285 | 0.0 | 0.0 | 0.00 | 0.00 | 0.00 | 69 | 1015.1 |
| 20260504020216 | 7 | 285 | 0.0 | 0.0 | 0.00 | 0.00 | 0.00 | 73 | 1014.9 |
| 20260504015717 | 7 | 285 | 0.0 | 0.0 | 0.00 | 0.00 | 0.00 | 73 | 1014.9 |
| 20260504015217 | 7 | 285 | 0.0 | 0.0 | 0.00 | 0.00 | 0.00 | 71 | 1015.0 |
| 20260504014717 | 8 | 285 | 0.0 | 0.0 | 0.00 | 0.00 | 0.00 | 71 | 1015.0 |
| 20260504014216 | 8 | 285 | 0.0 | 0.0 | 0.00 | 0.00 | 0.00 | 72 | 1014.9 |
| 20260504013717 | 8 | 285 | 0.0 | 0.0 | 0.00 | 0.00 | 0.00 | 71 | 1015.0 |
| 20260504013217 | 8 | 285 | 0.0 | 0.0 | 0.00 | 0.00 | 0.00 | 70 | 1015.0 |
| 20260504012717 | 8 | 285 | 0.0 | 0.0 | 0.00 | 0.00 | 0.00 | 70 | 1015.0 |
| 20260504012217 | 8 | 285 | 0.0 | 0.0 | 0.00 | 0.00 | 0.00 | 68 | 1014.9 |
| 20260504011718 | 8 | 285 | 0.0 | 0.0 | 0.00 | 0.00 | 0.00 | 65 | 1014.8 |
| 20260504011217 | 8 | 285 | 0.0 | 0.0 | 0.00 | 0.00 | 0.00 | 70 | 1014.7 |
| 20260504010717 | 8 | 285 | 0.0 | 0.0 | 0.00 | 0.00 | 0.00 | 66 | 1014.7 |
| 20260504010216 | 8 | 285 | 0.0 | 0.0 | 0.00 | 0.00 | 0.00 | 68 | 1014.7 |
| 20260504005717 | 9 | 285 | 0.0 | 0.0 | 0.00 | 0.00 | 0.00 | 68 | 1014.7 |
| 20260504005217 | 9 | 285 | 0.0 | 0.0 | 0.00 | 0.00 | 0.00 | 66 | 1014.7 |
| 20260504004718 | 9 | 285 | 0.0 | 0.0 | 0.00 | 0.00 | 0.00 | 64 | 1014.6 |
| 20260504004217 | 10 | 285 | 0.0 | 0.0 | 0.00 | 0.00 | 0.00 | 64 | 1014.5 |
| 20260504003716 | 10 | 285 | 0.0 | 0.0 | 0.00 | 0.00 | 0.00 | 62 | 1014.5 |
| 20260504003217 | 10 | 285 | 0.0 | 0.0 | 0.00 | 0.00 | 0.00 | 64 | 1014.4 |
| 20260504002719 | 11 | 285 | 0.0 | 0.0 | 0.00 | 0.00 | 0.00 | 63 | 1014.4 |
| 20260504002216 | 11 | 285 | 0.0 | 0.0 | 0.00 | 0.00 | 0.00 | 61 | 1014.4 |
| 20260504001717 | 11 | 285 | 0.0 | 0.0 | 0.00 | 0.00 | 0.00 | 59 | 1014.4 |
| 20260504001218 | 12 | 285 | 0.0 | 0.0 | 0.00 | 0.00 | 0.00 | 57 | 1014.3 |
| 20260504000717 | 12 | 285 | 0.0 | 0.0 | 0.00 | 0.00 | 0.00 | 52 | 1014.3 |
| 20260504000219 | 13 | 285 | 0.0 | 0.0 | 0.00 | 0.00 | 0.00 | 50 | 1014.3 |
| 20260503235718 | 13 | 285 | 0.0 | 0.0 | 0.00 | 0.00 | 0.00 | 42 | 1014.2 |
| 20260503235217 | 13 | 285 | 0.0 | 0.0 | 0.00 | 0.00 | 0.00 | 40 | 1014.1 |
| 20260503234717 | 13 | 285 | 0.0 | 0.0 | 0.00 | 0.00 | 0.00 | 38 | 1014.1 |
| 20260503234216 | 13 | 285 | 0.0 | 0.0 | 0.00 | 0.00 | 0.00 | 42 | 1014.1 |
| 20260503233717 | 14 | 285 | 0.0 | 0.0 | 0.00 | 0.00 | 0.00 | 43 | 1014.1 |
| 20260503233217 | 14 | 285 | 0.0 | 3.2 | 0.00 | 0.00 | 0.00 | 37 | 1014.0 |
| 20260503232718 | 14 | 285 | 0.0 | 3.2 | 0.00 | 0.00 | 0.00 | 38 | 1013.9 |
| 20260503232223 | 14 | 285 | 0.0 | 3.2 | 0.00 | 0.00 | 0.00 | 38 | 1013.9 |
| 20260503231722 | 14 | 285 | 0.0 | 0.0 | 0.00 | 0.00 | 0.00 | 39 | 1013.8 |
| 20260503231223 | 14 | 285 | 0.0 | 1.6 | 0.00 | 0.00 | 0.00 | 37 | 1013.8 |
| 20260503230722 | 14 | 285 | 0.0 | 4.8 | 0.00 | 0.00 | 0.00 | 38 | 1013.8 |
| 20260503230222 | 15 | 315 | 0.0 | 4.8 | 0.00 | 0.00 | 0.00 | 36 | 1013.8 |
| 20260503225723 | 15 | 315 | 0.0 | 1.6 | 0.00 | 0.00 | 0.00 | 39 | 1013.8 |
| 20260503225222 | 15 | 315 | 0.0 | 0.0 | 0.00 | 0.00 | 0.00 | 40 | 1013.9 |
| 20260503224722 | 15 | 315 | 0.0 | 0.0 | 0.00 | 0.00 | 0.00 | 35 | 1013.9 |
| 20260503224222 | 15 | 315 | 0.0 | 0.0 | 0.00 | 0.00 | 0.00 | 37 | 1013.9 |
| 20260503223723 | 15 | 315 | 0.0 | 4.8 | 0.00 | 0.00 | 0.00 | 36 | 1013.9 |
| 20260503223223 | 15 | 315 | 0.0 | 8.0 | 0.00 | 0.00 | 0.00 | 35 | 1014.0 |
| 20260503222720 | 15 | 314 | 0.0 | 8.0 | 0.00 | 0.00 | 0.00 | 34 | 1014.0 |
| 20260503222221 | 15 | 310 | 0.0 | 8.0 | 0.00 | 0.00 | 0.00 | 38 | 1013.9 |
| 20260503221720 | 15 | 305 | 0.0 | 4.8 | 0.00 | 0.00 | 0.00 | 35 | 1013.9 |
| 20260503221220 | 15 | 305 | 0.0 | 4.8 | 0.00 | 0.00 | 0.00 | 34 | 1013.9 |
| 20260503220719 | 15 | 306 | 1.6 | 8.0 | 0.00 | 0.00 | 0.00 | 33 | 1013.9 |
| 20260503220219 | 15 | 308 | 1.6 | 8.0 | 0.00 | 0.00 | 0.00 | 35 | 1013.9 |
| 20260503215722 | 15 | 293 | 0.0 | 8.0 | 0.00 | 0.00 | 0.00 | 34 | 1014.0 |
| 20260503215220 | 15 | 316 | 1.6 | 8.0 | 0.00 | 0.00 | 0.00 | 35 | 1014.0 |
| 20260503214720 | 15 | 289 | 1.6 | 4.8 | 0.00 | 0.00 | 0.00 | 36 | 1013.9 |
| 20260503214219 | 15 | 311 | 1.6 | 4.8 | 0.00 | 0.00 | 0.00 | 32 | 1014.0 |
| 20260503213720 | 15 | 305 | 0.0 | 4.8 | 0.00 | 0.00 | 0.00 | 32 | 1014.0 |
| 20260503213220 | 15 | 279 | 0.0 | 4.8 | 0.00 | 0.00 | 0.00 | 33 | 1014.0 |
| 20260503212718 | 15 | 275 | 1.6 | 4.8 | 0.00 | 0.00 | 0.00 | 34 | 1014.0 |
| 20260503212218 | 15 | 306 | 1.6 | 8.0 | 0.00 | 0.00 | 0.00 | 32 | 1013.9 |
| 20260503211717 | 15 | 332 | 0.0 | 8.0 | 0.00 | 0.00 | 0.00 | 34 | 1013.9 |
| 20260503211216 | 15 | 310 | 1.6 | 4.8 | 0.00 | 0.00 | 0.00 | 34 | 1013.9 |
| 20260503210718 | 15 | 308 | 0.0 | 9.7 | 0.00 | 0.00 | 0.00 | 35 | 1014.0 |
| 20260503210217 | 15 | 328 | 3.2 | 9.7 | 0.00 | 0.00 | 0.00 | 33 | 1014.0 |
| 20260503205717 | 15 | 330 | 3.2 | 9.7 | 0.00 | 0.00 | 0.00 | 33 | 1014.0 |
| 20260503205217 | 15 | 304 | 1.6 | 8.0 | 0.00 | 0.00 | 0.00 | 35 | 1014.0 |
| 20260503204718 | 15 | 10 | 0.0 | 4.8 | 0.00 | 0.00 | 0.00 | 33 | 1014.0 |
| 20260503204218 | 15 | 330 | 0.0 | 12.9 | 0.00 | 0.00 | 0.00 | 34 | 1014.0 |
| 20260503203718 | 15 | 267 | 0.0 | 12.9 | 0.00 | 0.00 | 0.00 | 34 | 1014.1 |
| 20260503203218 | 15 | 302 | 4.8 | 12.9 | 0.00 | 0.00 | 0.00 | 34 | 1014.1 |
| 20260503202717 | 15 | 291 | 0.0 | 8.0 | 0.00 | 0.00 | 0.00 | 35 | 1014.3 |
| 20260503202503 | 15 | 280 | 1.6 | 8.0 | 0.00 | 0.00 | 0.00 | 33 | 1014.3 |
| 20260503202006 | 15 | 307 | 1.6 | 11.3 | 0.00 | 0.00 | 0.00 | 33 | 1014.3 |
| 20260503201505 | 15 | 317 | 4.8 | 11.3 | 0.00 | 0.00 | 0.00 | 33 | 1014.4 |
| 20260503201006 | 15 | 323 | 4.8 | 8.0 | 0.00 | 0.00 | 0.00 | 33 | 1014.4 |
| 20260503200220 | 15 | 332 | 3.2 | 11.3 | 0.00 | 0.00 | 0.00 | 34 | 1014.4 |
| 20260503195720 | 15 | 223 | 3.2 | 11.3 | 0.00 | 0.00 | 0.00 | 35 | 1014.5 |
| 20260503195219 | 15 | 308 | 1.6 | 11.3 | 0.00 | 0.00 | 0.00 | 35 | 1014.6 |
| 20260503194721 | 15 | 294 | 0.0 | 8.0 | 0.00 | 0.00 | 0.00 | 35 | 1014.6 |
| 20260503194220 | 15 | 285 | 0.0 | 8.0 | 0.00 | 0.00 | 0.00 | 34 | 1014.9 |
| 20260503193720 | 15 | 324 | 1.6 | 4.8 | 0.00 | 0.00 | 0.00 | 35 | 1014.9 |
| 20260503193220 | 15 | 333 | 0.0 | 12.9 | 0.00 | 0.00 | 0.00 | 35 | 1014.9 |
| 20260503192721 | 15 | 313 | 4.8 | 12.9 | 0.00 | 0.00 | 0.00 | 37 | 1015.0 |
| 20260503192220 | 15 | 282 | 0.0 | 11.3 | 0.00 | 0.00 | 0.00 | 36 | 1015.1 |
| 20260503191720 | 15 | 309 | 3.2 | 11.3 | 0.00 | 0.00 | 0.00 | 38 | 1015.2 |
| 20260503191220 | 15 | 304 | 4.8 | 16.1 | 0.00 | 0.00 | 0.00 | 36 | 1015.2 |